User: anonymous   Login
Location: *
(37.5724°S, 58.0067°E)
Time: 05:08:51
(UTC+00:00)
Language:

CZ-2D R/B - Orbit

View from above orbital plane
View from above orbital plane
View from above satellite
View from above satellite

Ground track
Ground track

The orbit data is extracted from the following two-line orbital elements,

1 28738U 05024B   20337.33386430  .00001102  00000-0  67443-4 0  9996
2 28738  97.3723 354.2573 0010980 330.9025  29.1592 15.12182318846772
Epoch (UTC): 02 December 2020 08:00:45
Eccentricity: 0.0010980
inclination: 97.3723°
perigee height: 522 km
apogee height: 537 km
right ascension of ascending node: 354.2573°
argument of perigee: 330.9025°
revolutions per day: 15.12182318
mean anomaly at epoch: 29.1592°
orbit number at epoch: 84677

The dashed part of the orbit path shows where the satellite is in the earth's shadow,  

DLR